SCP
0 0 0 0 0 0 0 0 0 0 -0 0 -0 -0 0 0 0 0 0 0 0 0 0 0 0 0 0 0 0 0 0 0 0 0 0 0 0 0
0 0 0 0 0 0 0 0 0 0 0 0 0 0 0 0 0 0 0 0 0 0 0 0 0 0 0 0 0 0 0 0 0 0 0 0 0 0
0 0 0 0 0 0 0 0 0 0 0 -0 0 0 0 0 0 0 0 0 0 0 0 0 0 0 0 0 0 0 0 0 0 0 0 0 0 0
0 0 0 0 0 0 0 0 0 0 0 0 0 0 0 0 0 0 0 0 0 0 0 0 0 0 0 0 0 0 0 0 0 0 0 0 0 0
0 0 0 0 0 0 0 0 0 0 0 0 0 0 0 0 0 0 0 0 0 0 0 0 0 0 0 0 0 0 0 0 0 0 0 0 0 0
0 0 0 0 0 0 0 0 0 0 0 0 0 0 0 0 0 0 0 0 0 0 0 0 0 0 0 0 0 0 0 0 0 0 0 0 0 0
0 0 0 0 0 0 0 0 0 0 0 0 0 0 0 0 0 0 0 0 0 0 0 0 0 0 0 0 0 0 0 0 0 0 0 0 0 0
0 0 0 0 0 0 0 0 0 1 1 1 1 0 0 0 0 0 0 0 0 0 0 0 0 0 0 0 0 0 0 0 0 0 0 0 0 0
0 0 0 0 0 0 0 0 0 0 0 0 0 0 0 0 0 0 0 0 0 0 0 0 0 0 0 0 0 0 0 0 0 0 0 0 0 0
0 0 0 0 0 0 0 0 0 0 0 0 0 0 0 0 0 0 0 0 0 0 0 0 0 0 0 0 0 0 0 0 0 0 0 0 0 0
0 0 0 0 0 0 0 0 0 0 0 0 0 0 0 0 0 0 0 0 0 0 0 0 0 0 0 0 0 0 0 0 0 0 0 0 0 0
0 0 0 0 0 0 0 0 0 0 0 0 0 0 0 0 0 0 0 0 0 0 0 0 0 0 0 0 0 0 0 0 0 0 0 0 0 0
0 0 0 0 0 0 0 0 0 0 0 0 0 0 0 0 0 0 0 0 0 0 0 0 0 0 0 0 0 0 0 0 0 0 0 0 0 0
0 0 0 0 0 0 0 0 0 0 0 0 0 0 0 0 0 0 0 0 0 0 0 0 0 0 0 0 0 0 0 0 0 0 0 0 0 0
0 0 -0 0 0 0 0 0 0 0 0 0 0 0 0 0 0 0 0 0 0 0 0 0 0 0 0 0 0 0 0 0 0 0 0 0 0 0
0 0 0 0 0 0 0 0 0 0 0 0 0 0 0 0 0 0 0 0 0 0 0 0 0 0 0 0 0 0 0 0 0 0 0 0 0 0
0 0 0 0 0 0 0 0 0 0 0 0 0 0 0 0 0 0 0 0 0 0 0 0 0 0 0 0 0 0 0 0 0 0 0 0 -0 -0
-0 0 0 0 0 0 0 0 0 -0 0 0 0 0 0 0 0 0 0 0 0 0 0 0 0 0 0 0 0 0 0 0 0 0 0 -0 -0 -0
-0 -0 -0 -0 0 0 0 0 -0 -0 -0 0 -0 0 0 0 0 0 0 0 0 0 0 0 0 0 0 0 0 0 0 0 0 0 -0 -0 -0 -0
-0 -0 -0 -0 0 0 0 -0 -0 -0 -0 -0 -0 -0 0 0 0 0 0 0 0 0 0 0 0 0 0 0 0 0 0 0 -0 -0 -0 -0 -0 0
-0 -0 -0 -0 -0 -0 -0 0 0 0 -0 -0 -0 0 0 0 0 0 0 0 0 0 0 0 0 0 0 0 0 0 -0 -0 0 0 -0 -0 -0 -0
-0 -0 -0 -0 -0 -0 -0 -0 -0 -0 0 0 0 0 0 0 0 0 0 0 0 -0 -0 -0 -0 -0 -0 0 0 0 -0 -0 -0 -0 -0 0 0 0
0 0 0 0 -0 -0 -0 -0 -0 -0 -0 -0 -0 -0 -0 -0 -0 -0 -0 -0 -0 -0 -0 -0 -0 0 0 0 0 0 0 -0 0 -0 -0 -0 0 -0
Wind_Speed_500mb
25 23 22 21 22 20 18 18 24 32 35 21 17 22 20 16 28 32 25 20 22 19 20 22 24 24 27 25 23 21 20 19 20 18 18 19 19 17
29 29 29 25 26 22 24 27 31 32 38 37 33 31 28 23 22 24 19 23 27 27 23 27 27 26 27 30 27 25 22 22 22 22 21 21 20 19
32 34 34 32 31 31 32 34 36 34 41 48 45 35 38 32 31 27 31 31 27 28 25 31 32 34 32 31 32 29 27 25 24 24 23 23 22 21
35 35 34 29 32 33 36 38 34 33 41 44 42 40 39 33 37 38 39 44 37 38 36 33 37 37 36 33 35 36 33 29 27 26 26 25 23 23
46 42 41 40 42 39 37 37 38 37 39 43 45 42 43 43 44 43 45 48 50 44 40 37 38 40 37 37 38 40 38 33 30 29 28 26 23 22
51 47 44 40 40 39 40 44 44 47 41 41 43 43 45 45 46 49 51 47 50 49 45 42 40 43 45 44 41 43 42 37 34 32 31 27 24 21
46 44 43 40 39 44 47 49 49 46 46 48 52 50 48 47 47 49 50 49 51 45 50 45 41 45 42 45 46 45 42 36 37 35 33 30 25 20
48 50 48 49 51 52 53 52 52 54 57 58 59 61 60 56 53 49 48 45 52 48 44 44 46 55 44 40 40 41 43 42 40 39 35 32 25 22
51 54 59 58 57 58 60 63 63 64 68 67 64 61 61 62 60 57 52 48 49 50 48 46 41 39 53 43 37 44 52 49 45 39 36 29 30 36
58 57 57 59 60 67 73 77 77 74 72 71 73 75 74 67 60 53 48 50 42 45 47 48 47 41 45 45 39 31 34 39 39 43 41 44 50 45
61 65 64 63 67 72 78 80 79 75 69 69 68 66 64 63 66 70 62 53 50 38 43 47 49 43 47 36 27 28 38 38 34 41 46 52 42 45
53 57 61 66 66 65 66 67 71 66 62 61 61 62 60 60 57 61 66 60 48 42 50 42 48 48 37 39 41 35 33 33 28 27 37 39 46 48
50 54 55 56 53 51 49 50 50 47 48 52 52 51 50 47 46 55 65 69 67 54 51 44 54 58 50 38 44 39 38 36 32 34 40 42 42 42
44 45 44 46 35 28 29 29 28 32 37 40 42 43 40 34 36 44 49 62 64 59 48 44 49 59 60 47 31 37 39 35 34 34 35 36 39 39
37 36 30 26 22 25 29 30 28 30 35 38 37 33 29 26 32 29 24 37 47 44 39 35 33 30 42 40 37 28 34 39 41 38 37 36 34 32
24 20 19 18 22 24 20 23 21 17 16 16 14 11 9 14 19 20 37 29 32 32 32 32 43 29 37 34 24 26 34 32 44 43 37 37 34 27
15 15 13 13 14 15 19 17 16 14 13 8 1 2 12 13 12 30 28 27 28 34 37 37 34 27 24 20 26 34 31 42 32 46 50 42 35 40
23 15 11 14 14 17 19 14 13 12 15 9 8 11 8 8 32 22 17 19 25 34 34 32 31 29 33 32 27 21 31 35 37 53 49 42 43 41
30 20 16 9 11 15 16 15 16 13 14 6 8 15 11 15 18 16 22 22 25 27 25 25 30 32 36 33 20 20 32 37 54 56 48 48 40 30
28 22 18 14 12 11 7 8 11 12 9 13 16 16 11 3 11 20 19 22 24 25 25 22 21 21 23 32 36 36 33 43 58 55 53 44 35 33
24 27 21 14 14 9 9 9 9 13 11 9 8 9 7 10 14 15 19 20 21 23 23 25 21 17 17 35 52 45 36 35 38 40 41 38 31 28
16 24 27 20 14 11 10 15 12 14 17 16 13 12 12 12 15 20 22 26 30 39 41 40 36 33 40 40 47 47 41 37 37 31 26 30 28 19
8 11 23 26 16 10 13 16 16 16 19 22 22 24 25 30 35 37 42 42 40 41 44 50 47 42 38 31 28 29 31 31 30 31 28 24 23 22
Wind_Direction_500mb
265 267 274 264 266 267 283 296 304 310 305 326 339 334 309 296 282 263 257 265 261 259 265 262 261 263 254 256 260 265 265 262 264 266 266 266 266 269
266 266 270 274 274 274 283 283 286 281 285 289 295 309 312 302 297 274 266 279 275 285 273 266 263 265 263 257 258 261 262 257 255 257 258 261 266 272
263 267 265 268 273 273 278 280 284 283 285 283 284 288 294 296 278 267 266 272 280 278 285 275 269 269 265 260 258 259 258 256 256 259 261 261 266 270
271 269 270 269 268 270 274 273 273 276 284 289 285 282 282 282 280 274 271 263 277 275 270 273 273 267 264 262 260 258 256 254 253 256 258 261 265 270
272 268 270 273 274 275 274 273 275 287 287 283 284 279 275 273 276 277 278 272 271 270 262 269 277 266 262 260 259 257 255 254 253 253 254 256 259 259
265 267 269 269 272 278 278 280 281 279 278 280 284 282 275 273 277 278 274 277 271 268 261 265 273 266 262 258 254 252 249 246 248 249 250 253 254 252
264 265 266 270 276 277 278 278 275 268 271 276 281 281 280 277 275 279 281 282 272 273 269 264 271 271 267 268 256 249 251 247 247 243 243 242 240 239
267 271 271 271 271 272 273 272 268 268 272 276 277 276 277 279 278 280 281 285 276 274 259 264 241 264 262 266 264 252 250 244 240 240 236 231 223 204
273 280 272 270 269 269 270 270 268 266 270 272 270 271 274 276 277 277 278 279 277 272 273 278 254 252 264 248 254 251 245 239 234 232 234 211 193 185
264 278 276 273 272 272 272 272 271 270 268 267 265 265 263 265 269 267 271 277 272 262 259 254 251 263 245 236 236 251 258 256 248 238 230 204 203 194
270 274 277 280 279 278 277 276 273 271 267 265 265 263 263 262 260 257 261 269 270 262 255 252 257 252 231 219 242 250 254 252 246 229 231 225 212 196
272 278 281 282 283 284 283 279 276 276 274 270 267 268 268 265 260 257 251 248 256 256 260 253 249 240 209 209 232 238 236 244 247 247 242 216 198 207
279 283 290 292 291 288 286 282 284 284 280 278 278 274 270 265 260 255 245 237 241 249 256 256 236 229 211 210 222 227 232 239 238 228 205 201 207 212
291 295 298 303 309 313 310 307 300 289 283 279 276 276 270 263 272 269 241 231 231 240 254 255 243 237 216 220 219 224 224 228 227 221 210 204 208 213
307 306 312 321 317 313 306 298 292 295 290 283 276 274 272 268 272 253 210 206 225 236 236 229 218 218 219 227 231 222 206 219 216 211 202 199 212 205
321 323 323 322 311 313 330 330 316 323 321 302 287 269 271 242 197 187 189 194 205 183 171 174 200 209 214 219 230 217 224 215 212 199 191 189 186 186
358 344 325 321 331 336 335 341 348 342 336 348 347 92 148 161 160 187 199 200 206 187 175 185 191 183 183 208 221 230 235 212 202 184 182 183 181 179
8 337 339 342 344 353 5 11 28 41 55 101 62 112 69 153 163 150 133 145 164 163 168 176 195 198 202 196 206 217 202 199 183 174 176 180 180 183
13 8 359 7 2 1 11 24 55 61 66 91 114 127 121 142 143 156 161 162 167 178 187 197 205 215 205 181 166 166 184 172 170 174 175 179 178 180
15 10 3 6 5 359 2 28 48 77 70 100 129 132 130 154 181 171 165 171 173 168 165 165 178 192 201 179 156 152 161 165 168 168 173 175 179 190
26 27 22 28 25 32 51 52 62 90 100 133 157 171 184 169 165 157 151 155 164 161 146 137 136 143 158 158 140 141 150 165 171 167 169 180 193 205
18 30 30 36 58 78 79 74 89 102 106 111 120 128 137 136 151 150 142 137 135 131 128 124 120 126 138 144 141 140 143 156 168 183 203 209 202 207
326 33 38 42 53 90 100 105 111 110 111 105 105 109 111 118 117 116 119 121 123 124 124 122 122 128 133 130 127 146 157 163 172 179 184 201 222 240
Wind_Speed_850mb
25 23 22 21 22 20 18 18 24 32 35 21 17 22 20 16 28 32 25 20 22 19 20 22 24 24 27 25 23 21 20 19 20 18 18 19 19 17
29 29 29 25 26 22 24 27 31 32 38 37 33 31 28 23 22 24 19 23 27 27 23 27 27 26 27 30 27 25 22 22 22 22 21 21 20 19
32 34 34 32 31 31 32 34 36 34 41 48 45 35 38 32 31 27 31 31 27 28 25 31 32 34 32 31 32 29 27 25 24 24 23 23 22 21
35 35 34 29 32 33 36 38 34 33 41 44 42 40 39 33 37 38 39 44 37 38 36 33 37 37 36 33 35 36 33 29 27 26 26 25 23 23
46 42 41 40 42 39 37 37 38 37 39 43 45 42 43 43 44 43 45 48 50 44 40 37 38 40 37 37 38 40 38 33 30 29 28 26 23 22
51 47 44 40 40 39 40 44 44 47 41 41 43 43 45 45 46 49 51 47 50 49 45 42 40 43 45 44 41 43 42 37 34 32 31 27 24 21
46 44 43 40 39 44 47 49 49 46 46 48 52 50 48 47 47 49 50 49 51 45 50 45 41 45 42 45 46 45 42 36 37 35 33 30 25 20
48 50 48 49 51 52 53 52 52 54 57 58 59 61 60 56 53 49 48 45 52 48 44 44 46 55 44 40 40 41 43 42 40 39 35 32 25 22
51 54 59 58 57 58 60 63 63 64 68 67 64 61 61 62 60 57 52 48 49 50 48 46 41 39 53 43 37 44 52 49 45 39 36 29 30 36
58 57 57 59 60 67 73 77 77 74 72 71 73 75 74 67 60 53 48 50 42 45 47 48 47 41 45 45 39 31 34 39 39 43 41 44 50 45
61 65 64 63 67 72 78 80 79 75 69 69 68 66 64 63 66 70 62 53 50 38 43 47 49 43 47 36 27 28 38 38 34 41 46 52 42 45
53 57 61 66 66 65 66 67 71 66 62 61 61 62 60 60 57 61 66 60 48 42 50 42 48 48 37 39 41 35 33 33 28 27 37 39 46 48
50 54 55 56 53 51 49 50 50 47 48 52 52 51 50 47 46 55 65 69 67 54 51 44 54 58 50 38 44 39 38 36 32 34 40 42 42 42
44 45 44 46 35 28 29 29 28 32 37 40 42 43 40 34 36 44 49 62 64 59 48 44 49 59 60 47 31 37 39 35 34 34 35 36 39 39
37 36 30 26 22 25 29 30 28 30 35 38 37 33 29 26 32 29 24 37 47 44 39 35 33 30 42 40 37 28 34 39 41 38 37 36 34 32
24 20 19 18 22 24 20 23 21 17 16 16 14 11 9 14 19 20 37 29 32 32 32 32 43 29 37 34 24 26 34 32 44 43 37 37 34 27
15 15 13 13 14 15 19 17 16 14 13 8 1 2 12 13 12 30 28 27 28 34 37 37 34 27 24 20 26 34 31 42 32 46 50 42 35 40
23 15 11 14 14 17 19 14 13 12 15 9 8 11 8 8 32 22 17 19 25 34 34 32 31 29 33 32 27 21 31 35 37 53 49 42 43 41
30 20 16 9 11 15 16 15 16 13 14 6 8 15 11 15 18 16 22 22 25 27 25 25 30 32 36 33 20 20 32 37 54 56 48 48 40 30
28 22 18 14 12 11 7 8 11 12 9 13 16 16 11 3 11 20 19 22 24 25 25 22 21 21 23 32 36 36 33 43 58 55 53 44 35 33
24 27 21 14 14 9 9 9 9 13 11 9 8 9 7 10 14 15 19 20 21 23 23 25 21 17 17 35 52 45 36 35 38 40 41 38 31 28
16 24 27 20 14 11 10 15 12 14 17 16 13 12 12 12 15 20 22 26 30 39 41 40 36 33 40 40 47 47 41 37 37 31 26 30 28 19
8 11 23 26 16 10 13 16 16 16 19 22 22 24 25 30 35 37 42 42 40 41 44 50 47 42 38 31 28 29 31 31 30 31 28 24 23 22
Wind_Direction_850mb
265 267 274 264 266 267 283 296 304 310 305 326 339 334 309 296 282 263 257 265 261 259 265 262 261 263 254 256 260 265 265 262 264 266 266 266 266 269
266 266 270 274 274 274 283 283 286 281 285 289 295 309 312 302 297 274 266 279 275 285 273 266 263 265 263 257 258 261 262 257 255 257 258 261 266 272
263 267 265 268 273 273 278 280 284 283 285 283 284 288 294 296 278 267 266 272 280 278 285 275 269 269 265 260 258 259 258 256 256 259 261 261 266 270
271 269 270 269 268 270 274 273 273 276 284 289 285 282 282 282 280 274 271 263 277 275 270 273 273 267 264 262 260 258 256 254 253 256 258 261 265 270
272 268 270 273 274 275 274 273 275 287 287 283 284 279 275 273 276 277 278 272 271 270 262 269 277 266 262 260 259 257 255 254 253 253 254 256 259 259
265 267 269 269 272 278 278 280 281 279 278 280 284 282 275 273 277 278 274 277 271 268 261 265 273 266 262 258 254 252 249 246 248 249 250 253 254 252
264 265 266 270 276 277 278 278 275 268 271 276 281 281 280 277 275 279 281 282 272 273 269 264 271 271 267 268 256 249 251 247 247 243 243 242 240 239
267 271 271 271 271 272 273 272 268 268 272 276 277 276 277 279 278 280 281 285 276 274 259 264 241 264 262 266 264 252 250 244 240 240 236 231 223 204
273 280 272 270 269 269 270 270 268 266 270 272 270 271 274 276 277 277 278 279 277 272 273 278 254 252 264 248 254 251 245 239 234 232 234 211 193 185
264 278 276 273 272 272 272 272 271 270 268 267 265 265 263 265 269 267 271 277 272 262 259 254 251 263 245 236 236 251 258 256 248 238 230 204 203 194
270 274 277 280 279 278 277 276 273 271 267 265 265 263 263 262 260 257 261 269 270 262 255 252 257 252 231 219 242 250 254 252 246 229 231 225 212 196
272 278 281 282 283 284 283 279 276 276 274 270 267 268 268 265 260 257 251 248 256 256 260 253 249 240 209 209 232 238 236 244 247 247 242 216 198 207
279 283 290 292 291 288 286 282 284 284 280 278 278 274 270 265 260 255 245 237 241 249 256 256 236 229 211 210 222 227 232 239 238 228 205 201 207 212
291 295 298 303 309 313 310 307 300 289 283 279 276 276 270 263 272 269 241 231 231 240 254 255 243 237 216 220 219 224 224 228 227 221 210 204 208 213
307 306 312 321 317 313 306 298 292 295 290 283 276 274 272 268 272 253 210 206 225 236 236 229 218 218 219 227 231 222 206 219 216 211 202 199 212 205
321 323 323 322 311 313 330 330 316 323 321 302 287 269 271 242 197 187 189 194 205 183 171 174 200 209 214 219 230 217 224 215 212 199 191 189 186 186
358 344 325 321 331 336 335 341 348 342 336 348 347 92 148 161 160 187 199 200 206 187 175 185 191 183 183 208 221 230 235 212 202 184 182 183 181 179
8 337 339 342 344 353 5 11 28 41 55 101 62 112 69 153 163 150 133 145 164 163 168 176 195 198 202 196 206 217 202 199 183 174 176 180 180 183
13 8 359 7 2 1 11 24 55 61 66 91 114 127 121 142 143 156 161 162 167 178 187 197 205 215 205 181 166 166 184 172 170 174 175 179 178 180
15 10 3 6 5 359 2 28 48 77 70 100 129 132 130 154 181 171 165 171 173 168 165 165 178 192 201 179 156 152 161 165 168 168 173 175 179 190
26 27 22 28 25 32 51 52 62 90 100 133 157 171 184 169 165 157 151 155 164 161 146 137 136 143 158 158 140 141 150 165 171 167 169 180 193 205
18 30 30 36 58 78 79 74 89 102 106 111 120 128 137 136 151 150 142 137 135 131 128 124 120 126 138 144 141 140 143 156 168 183 203 209 202 207
326 33 38 42 53 90 100 105 111 110 111 105 105 109 111 118 117 116 119 121 123 124 124 122 122 128 133 130 127 146 157 163 172 179 184 201 222 240